Regional Weather Roundup
Issued by NWS

Home | Current Version | Previous Version | Graphics & Text | Print | Product List | Glossary On
Versions: 1 2 3 4 5 6 7 8 9 10 11 12 13 14 15 16 17 18 19 20 21 22 23 24 25 26 27 28 29 30 31 32 33 34 35 36 37 38 39 40 41 42 43 44 45 46 47 48 49 50
787
ASUS43 KFSD 250010
RWRSD

WEATHER ROUNDUP FOR SOUTH DAKOTA
NATIONAL WEATHER SERVICE SIOUX FALLS SD
700 PM CDT TUE APR 24 2018

NOTE: "FAIR" INDICATES FEW OR NO CLOUDS BELOW 12,000 FEET WITH NO
SIGNIFICANT WEATHER AND/OR OBSTRUCTIONS TO VISIBILITY.


SDZ001>005-009-010-012>017-250100-
NORTHWEST AND NORTH CENTRAL SOUTH DAKOTA

CITY           SKY/WX    TMP DP  RH WIND       PRES   REMARKS
BUFFALO          N/A     52  18  26 CALM      30.34F
FAITH            N/A     52  29  41 N12       30.39S
MOBRIDGE       SUNNY     57  28  33 N12G20    30.35S
$$

SDZ012>016-024>037-041>051-057-063-072>074-250100-
SOUTHWEST AND SOUTH CENTRAL SOUTH DAKOTA

CITY           SKY/WX    TMP DP  RH WIND       PRES   REMARKS
RAPID CTY ARPT MOSUNNY   50  24  36 NE14G23   30.41S
PIERRE         MOSUNNY   51  34  52 NW9       30.36F
CUSTER         PTSUNNY   39  17  41 VRB5      30.38S
ELLSWORTH AFB  MOSUNNY   50  22  33 N10       30.40F
PHILIP         PTSUNNY   48  35  60 W6        30.40F
PINE RIDGE     CLOUDY    46  27  47 N10       30.41F
SPEARFISH      FAIR      41  27  56 N3        30.43S
WINNER         CLOUDY    42  37  82 NW10      30.38S
$$

SDZ004>011-016>023-039-040-250100-
NORTHEAST SOUTH DAKOTA

CITY           SKY/WX    TMP DP  RH WIND       PRES   REMARKS
ABERDEEN       SUNNY     55  33  43 NE13      30.34S
WATERTOWN      SUNNY     49  33  54 N21       30.29R
BROOKINGS      CLOUDY    47  38  71 N12       30.27S
SISSETON         N/A     52  36  54 N23       30.30S
$$

SDZ017-020-022-023-036>040-048>070-250100-
SOUTHEAST SOUTH DAKOTA

CITY           SKY/WX    TMP DP  RH WIND       PRES   REMARKS
SIOUX FALLS    CLOUDY    45  38  76 N14G24    30.27R
HURON          CLOUDY    46  40  79 NW10      30.33F
CHAMBERLAIN    CLOUDY    44  42  92 NW8       30.37S
MITCHELL       CLOUDY    46  39  76 N9        30.33S
YANKTON        CLOUDY    46  42  86 N17G25    30.27R
$$

ABBREVIATIONS USED IN REMARKS
   TC - TEMPERATURE IN CELSIUS
  WCI - WIND CHILL INDEX
   HX - HEAT INDEX
  VSB - VISIBILITY





USA.gov is the U.S. government's official web portal to all federal, state and local government web resources and services.